Location: Bartshausen
(51.8454°N, 9.8167°E)
Time: 11:03:02
(UTC+00:00)

Iridium 4 Rocket - Pass Details

Date: 23 February 2026
Orbit: 579 x 887 km, 86.9° (Epoch: 8 March)

Event Time Altitude Azimuth Distance (km) Brightness Sun altitude
Rises 05:41:11 0° 133° (SE) 3,375 7.8 -6.6°
Reaches altitude 10° 05:44:23 10° 115° (ESE) 2,395 7.6 -6.1°
Maximum altitude 05:47:48 17° 76° (ENE) 1,875 6.7 -5.6°
Drops below altitude 10° 05:51:03 10° 36° (NE) 2,279 6.3 -5.1°
Sets 05:54:00 0° 17° (NNE) 3,145 6.8 -4.7°
